Location: Hylvaty SDH
(49.9612°N, 16.4057°E)
Time: 19:23:32
(UTC+01:00)

Vanguard 1 Rocket - Pass Details

Date: 03 October 2020
Orbit: 656 x 4221 km, 34.3° (Epoch: 30 October)

Event Time Altitude Azimuth Distance (km) Brightness Sun altitude
Rises 19:32:08 0° 250° (WSW) 5,108 12.5 -11.2°
Reaches altitude 10° 19:35:03 10° 244° (WSW) 4,484 11.8 -11.6°
Maximum altitude 19:47:41 46° 176° (S) 3,704 10.3 -13.7°
Enters shadow 20:05:05 17° 117° (ESE) 6,533 11.1 -16.4°
Drops below altitude 10° 20:09:02 10° 113° (ESE) 7,275 - -17.0°
Sets 20:15:30 0° 109° (ESE) 8,448 - -18.0°
